TimeEST,TemperatureF,Dew PointF,Humidity,Sea Level PressureIn,VisibilityMPH,Wind Direction,Wind SpeedMPH,Gust SpeedMPH,PrecipitationIn,Events,Conditions,WindDirDegrees,DateUTC
12:53 AM,63.0,57.9,84,30.01,10.0,WSW,6.9,-,0.01,Rain,Light Rain,240,2012-11-04 04:53:00
1:53 AM,62.1,57.0,84,30.00,10.0,West,6.9,-,0.01,,Overcast,280,2012-11-04 05:53:00
1:53 AM,62.1,55.9,80,30.00,10.0,Calm,Calm,-,N/A,,Mostly Cloudy,0,2012-11-04 06:53:00
2:53 AM,59.0,55.9,90,29.98,10.0,Calm,Calm,-,N/A,,Scattered Clouds,0,2012-11-04 07:53:00
3:29 AM,57.2,57.2,100,29.99,10.0,SE,3.5,-,N/A,,Mostly Cloudy,130,2012-11-04 08:29:00
3:53 AM,59.0,57.0,93,29.97,10.0,Calm,Calm,-,N/A,,Mostly Cloudy,0,2012-11-04 08:53:00
4:53 AM,59.0,57.0,93,29.99,10.0,Calm,Calm,-,N/A,,Overcast,0,2012-11-04 09:53:00
5:15 AM,59.0,57.2,94,30.01,10.0,Calm,Calm,-,N/A,,Mostly Cloudy,0,2012-11-04 10:15:00
5:53 AM,57.9,57.0,97,30.00,10.0,Calm,Calm,-,N/A,,Mostly Cloudy,0,2012-11-04 10:53:00
6:53 AM,57.0,57.0,100,30.00,10.0,Calm,Calm,-,N/A,,Mostly Cloudy,0,2012-11-04 11:53:00
7:53 AM,57.0,57.0,100,30.02,10.0,North,4.6,-,N/A,,Mostly Cloudy,360,2012-11-04 12:53:00
8:53 AM,57.9,54.0,87,30.04,10.0,North,8.1,-,N/A,,Mostly Cloudy,350,2012-11-04 13:53:00
9:12 AM,57.2,50.0,77,30.06,10.0,NNW,8.1,-,N/A,,Mostly Cloudy,330,2012-11-04 14:12:00
9:53 AM,57.9,46.9,67,30.06,10.0,NNW,9.2,-,N/A,,Mostly Cloudy,340,2012-11-04 14:53:00
10:33 AM,57.2,44.6,63,30.08,10.0,North,8.1,-,N/A,,Mostly Cloudy,360,2012-11-04 15:33:00
10:53 AM,57.9,44.1,60,30.06,10.0,North,6.9,-,N/A,,Mostly Cloudy,360,2012-11-04 15:53:00
11:53 AM,61.0,44.1,54,30.06,10.0,North,3.5,-,N/A,,Mostly Cloudy,360,2012-11-04 16:53:00
12:53 PM,62.1,43.0,50,30.04,10.0,NNE,3.5,-,N/A,,Mostly Cloudy,30,2012-11-04 17:53:00
1:53 PM,64.0,43.0,46,30.02,10.0,NNE,9.2,-,N/A,,Mostly Cloudy,20,2012-11-04 18:53:00
2:53 PM,64.0,42.1,45,30.02,10.0,NNE,6.9,-,N/A,,Scattered Clouds,20,2012-11-04 19:53:00
3:53 PM,63.0,37.9,40,30.02,10.0,NNE,12.7,-,N/A,,Scattered Clouds,20,2012-11-04 20:53:00
4:53 PM,60.1,39.9,47,30.04,10.0,North,15.0,-,N/A,,Scattered Clouds,360,2012-11-04 21:53:00
5:53 PM,53.1,41.0,64,30.07,10.0,NNW,9.2,-,N/A,,Scattered Clouds,340,2012-11-04 22:53:00
6:53 PM,48.9,39.9,71,30.10,10.0,NW,9.2,-,N/A,,Scattered Clouds,320,2012-11-04 23:53:00
7:53 PM,48.0,39.0,71,30.11,10.0,NNW,6.9,-,N/A,,Mostly Cloudy,340,2012-11-05 00:53:00
8:53 PM,46.0,39.0,76,30.11,10.0,WNW,3.5,-,N/A,,Partly Cloudy,300,2012-11-05 01:53:00
9:53 PM,44.1,39.0,82,30.12,10.0,Calm,Calm,-,N/A,,Clear,0,2012-11-05 02:53:00
10:53 PM,42.1,39.0,89,30.11,10.0,Calm,Calm,-,N/A,,Clear,0,2012-11-05 03:53:00